Regional Weather Roundup
Issued by NWS Upton, NY

Current Version | Previous Version | Graphics & Text | Print | Product List | Glossary Off
Versions: 1 2 3 4 5 6 7 8 9 10 11 12 13 14 15 16 17 18 19 20 21 22 23 24 25 26 27 28
000 ASUS41 KOKX 140508 RWROKX REGIONAL WEATHER ROUNDUP NATIONAL WEATHER SERVICE NEW YORK NY 1200 AM EST THU DEC 14 2017 NOTE: "FAIR" INDICATES FEW OR NO CLOUDS BELOW 12,000 FEET WITH NO SIGNIFICANT WEATHER AND/OR OBSTRUCTIONS TO VISIBILITY. NYZ071-072-176-178-NJZ106-104-140600- NEW YORK CITY METRO AREA CITY SKY/WX TMP DP RH WIND PRES REMARKS Central Park CLOUDY 26 12 55 W14G21 29.70R WCI 14 Bronx Bot Gard N/A 27 14 59 W9 29.70R WCI 17 Bronx Lehman C NOT AVBL LaGuardia APRT CLOUDY 28 10 46 W13 29.68R WCI 17 Queens College NOT AVBL Kennedy INTL FLURRIES 27 13 55 W17G24 29.71R WCI 14 Breezy Point N/A N/A N/A N/A W13G20 N/A Brooklyn Coll NOT AVBL Staten Island NOT AVBL Newark/Liberty LGT SNOW 24 16 71 SW12 29.70R WCI 13 Teterboro FLURRIES 25 15 66 W9 29.68R WCI 15 $$ NYZ177-179-078>081-140600- LONG ISLAND NEW YORK CITY SKY/WX TMP DP RH WIND PRES REMARKS Jones Beach N/A N/A N/A N/A W18G24 N/A Wantagh NOT AVBL Matinecock PT N/A N/A N/A N/A W23G29 N/A Farmingdale CLOUDY 28 6 39 W9 29.67R WCI 19 MacArthur/ISP CLOUDY 28 8 43 W9 29.66R WCI 19 Shirley CLOUDY 28 9 44 W8 29.67R WCI 20 Mt Sinai Harb N/A N/A N/A N/A W7G17 N/A Westhampton CLOUDY 27 7 42 W14 29.67S WCI 16 East Hampton CLOUDY 27 10 47 W9 29.66R WCI 18 Southold NOT AVBL Montauk N/A 31 14 49 W15G28 29.65R WCI 20 $$ NYZ052-065-067-140600- HUDSON VALLEY CITY SKY/WX TMP DP RH WIND PRES REMARKS White Plains LGT SNOW 23 12 62 W10G18 29.64R WCI 12 Larchmont Harb N/A N/A N/A N/A SW17 N/A Croton On Huds N/A N/A N/A N/A W12 N/A Somers NOT AVBL Brewster NOT AVBL Newburgh CLOUDY 21 10 63 W6 29.64R WCI 14 Montgomery LGT SNOW 21 14 74 SW10 29.63R WCI 10 Otisville NOT AVBL Warwick NOT AVBL Suffern NOT AVBL Poughkeepsie CLOUDY 24 6 46 SW7 29.64S WCI 16 Albany MOCLDY 19 6 57 SW10 29.61S WCI 7 $$ NJZ001-105-106-008-010-013-015-019>022-104-140600- NEW JERSEY CITY SKY/WX TMP DP RH WIND PRES REMARKS Newark/Liberty LGT SNOW 24 16 71 SW12 29.70R WCI 13 Teterboro FLURRIES 25 15 66 W9 29.68R WCI 15 Caldwell LGT SNOW 22 18 85 VRB5 29.68S FOG WCI 16 Somerville LGT SNOW 22 21 96 CALM 29.66F VSB 1 Linden LGT SNOW 24 17 75 CALM 29.70S Perth Amboy N/A N/A N/A N/A W7 N/A Sussex LGT SNOW 20 17 88 S5 29.63S VSB 1 WCI 13 Andover NOT AVBL Trenton LGT SNOW 24 22 91 SE5 29.65F FOG WCI 18 Millville CLOUDY 28 28 100 CALM 29.67F Atlantic City LGT SNOW 28 27 96 S3 29.68F FOG Wrightstown LGT SNOW 25 21 86 SE5 29.64F FOG WCI 19 Toms River LGT SNOW 25 22 88 CALM 29.70F FOG Belmar LGT SNOW 23 21 92 SW5 N/A FOG WCI 17 $$ PAZ047>061-062-071-140600- EASTERN PENNSYLVANIA CITY SKY/WX TMP DP RH WIND PRES REMARKS Philadelphia LGT SNOW 27 24 89 SE8 29.65F FOG WCI 19 Allentown LGT SNOW 23 18 81 SE3 29.62F Scranton LGT SNOW 19 17 92 CALM 29.56F VSB 3/4 $$ CTZ002-004>006-009-010-012-RIZ004-006-007-MAZ004-011-015-140600- SOUTHERN NEW ENGLAND IN CT CITY SKY/WX TMP DP RH WIND PRES REMARKS Bradley INTL CLOUDY 20 7 57 W5 29.62S WCI 13 Hartford CLOUDY 24 5 44 W6 29.63F WCI 17 Danbury CLOUDY 24 6 46 W7 29.64R WCI 16 Wtrbury/Oxford CLOUDY 21 8 57 SW9 29.61S WCI 11 Norwalk Harbor N/A N/A N/A N/A W18G28 N/A Bridgeport CLOUDY 27 7 42 W10 29.67R WCI 17 Meriden CLOUDY 24 6 46 W9 29.64F WCI 14 New Haven CLOUDY 27 8 44 W9 29.65F WCI 18 Chester FAIR 25 5 42 VRB6 29.62R WCI 18 Groton CLOUDY 26 6 42 W13 29.64S WCI 15 Wilimantic CLOUDY 23 6 48 N6 29.61F WCI 16 IN RI CITY SKY/WX TMP DP RH WIND PRES REMARKS Providence MOCLDY 24 5 44 W12G23 29.62R WCI 13 Block Island CLOUDY 29 15 56 W18G28 29.62S WCI 16 Westerly CLOUDY 26 5 40 VRB5 29.63F WCI 20 IN MA CITY SKY/WX TMP DP RH WIND PRES REMARKS Boston PTCLDY 22 9 57 W20G29 29.58R WCI 7 Worcester CLOUDY 15 4 61 W14G22 29.52R WCI 0 Westfield CLOUDY 19 7 59 W9 29.61R WCI 8 Provincetown MOCLDY 24 14 65 W28G36 29.58R WCI 7 Nantucket MOCLDY 30 16 56 W20G31 29.60R WCI 17 $$ ANZ330-335-338-340-345-350-353-355-140600- COASTAL MARINE OBSERVATIONS STATION/POSITION TIME SKY/WX TEMP WIND PRES VSBY WAVE AIR SEA DIR/SP/G HT/PER (UTC) (F) (DEG/KT/KT) (MB) (MI) (FT/S) NY HARB ENTRANCE 0350 31 52 270/ 16/ 21 1004.4 3/ 4 20 S FIRE ISLAND 0350 33 51 270/ 21/ 27 1004.7 7/ 6 GREAT SOUTH BAY NOT AVBL HUDSON CANYON 0450 35 56 260/ 21/ 25 1005.0 7/ 7 KINGS POINT 0424 28 42 330/ 12/ 14 1005.6 EXECUTION ROCKS 0430 29 240/ 16/ 27 N/A WESTERN LI SOUND NOT AVBL CENTRAL LI SOUND 0415 30 270/ 19/ 27 N/A 6 ROBBINS REEF 0424 27 230/ 17/ 26 1005.9 $$ >>>>>>>>>>>>>>>>>>>>>>>>>>>> KEY <<<<<<<<<<<<<<<<<<<<<<<<<<< > < > SKY/WX - Sky Condition/Present Weather < > TMP - Temperature in Fahrenheit < > DP - Dew Point in Fahrenheit < > RH - Relative Humidity in Percent < > WIND - Direction (from) and Speed in MPH < > PRES - Mean Sea Level Pressure (inches of Hg) < > WCI - Wind Chill Index < > VSB - VISIBILITY IN MILES < > HX - HEAT INDEX < > TC - TEMPERATURE IN CELSIUS < > VRB - VARIABLE WIND DIRECTION < > < >>>>>>>>>>>>>>>>>>>>>>>>>>>> KEY <<<<<<<<<<<<<<<<<<<<<<<<<<<

USA.gov is the U.S. government's official web portal to all federal, state and local government web resources and services.